Погода Атырау

Погода Атырау : погода сейчас, прогноз погоды и архив. Всё, что Вы хотите узнать о погоде Атырау!

Хотите узнать прогноз погоды в Атырау? Тогда Вам сюда: Погода в Атырау

Поиск расширенной информации на нашем сайте:

Другие новости

Новости СМИ2

Главная страница сайта

Новости сайта

03.07.2017

Напоминаем, что на нашем специализированном сайте Метеоцентр.Азия вы можете получить высокодетализированные автоматические прогнозы погоды по пунктам России, СНГ и мира в авиационном формате (включающие направление и скорость ветра, видимость, явления погоды, количество и форму облачности, нижнюю и верхнюю границу облачности).


Погода Атырау - сегодня

Время (UTC), дата Ветер
(°,м/с) 
Видим.   Явления Облачность Т
(°С)
Тd
(°С)
f(%) Тe
(°С)
Pmin
(гПа)
dP
(гПа)
Po
(мм)
O2
(г/м3)
Тmin Tmax R s Состояние
почвы
09 15.06.18 140 (ЮВ) 20000 м    ясно 
+33 -3.8 9 +33  1011.8  -1.3  760  274           
12 15.06.18 200 (Ю) 20000 м    ясно 
+33 +0.2 12 +33  1011.4  -0.4  760  273           
15 15.06.18 270 (З) 20000 м    ясно 
+31.4 +2.1 15 +31  1010.7  -0.7  760  274    +34.5       
18 15.06.18 210 (ЮЗ) 20000 м    ясно 
+26.1 +5.1 26 +26  1010.8  0.1  760  279    +34.5       
21 15.06.18 240 (ЮЗ) 20000 м    ясно 
+22.8 +5.6 33 +23  1010.6  -0.1  760  282           
00 16.06.18 350 (С) 20000 м    ясно 
+20 +11.5 58 +23  1009.7  -0.9  759  283           
06 16.06.18 290 (З) 20000 м    ясно 
+32.6 +2.9 15 +33  1009.4  -0.2  759  273  +19.1         
09 16.06.18 190 (Ю) 20000 м    3/3 1000 м 
[Cu hum]
+34.4 +4.5 15 +34  1008.5  -0.9  758  271           
12 16.06.18 200 (Ю) 20000 м    4/4 1000 м 
[Cu hum]
+35.8 +2.3 12 +36  1007.4  -1.1  757  269           
15 16.06.18 250 (З) 5-15  10 км  пыльная буря  6/0 верхняя 
[Cs]
+34.2 +0.6 12 +34  1006.5  -0.9  756  271    +35.9       
18 16.06.18 050 (СВ) 6{15}  20000 м    ясно 
+24 +2.3 24 +24  1009.7  3.3  759  281    +35.9       
21 16.06.18 030 (СВ) 20000 м    ясно 
+20.7 +1.9 29 +21  1009.6  -0.1  759  284           
00 17.06.18 070 (В) 20000 м    3/0 средняя 
[Ac trans]
+18 +2.9 36 +19  1010.1  0.5  759  287           
03 17.06.18 060 (СВ) 20000 м    3/0 верхняя 
[Cs]
+19.3 +1.5 30 +20  1010.5  0.4  760  286           
06 17.06.18 060 (СВ) 20000 м  пыльный позёмок  ясно 
+23.6 -0.5 20 +24  1011  0.5  760  282  +17.2         
09 17.06.18 050 (СВ) 20000 м  пыльный позёмок  ясно 
+26.8 -0.2 17 +27  1010.1  -1  759  279           
12 17.06.18 060 (СВ) 20000 м    ясно 
+28.5 +0.4 16 +29  1009  -1.1  758  277           
15 17.06.18 040 (СВ) 20000 м    ясно 
+27.2 -1.4 15 +27  1008.9  -0.1  758  278    +29.1       
18 17.06.18 050 (СВ) 20000 м    ясно 
+23.1 +1.9 25 +23  1009.8  759  282    +29.1       
21 17.06.18 020 (С) 20000 м    ясно 
+19.7 +2.5 32 +21  1009.8  759  285           
00 18.06.18 030 (СВ) 20000 м    ясно 
+16.2 +3 41 +18  1010.1  0.3  759  288           
03 18.06.18 050 (СВ) 20000 м    ясно 
+19.7 +3.8 35 +21  1010.4  0.3  759  285           
06 18.06.18 020 (С) 20000 м    ясно 
+25.1 +5.3 28 +25  1010.1  -0.3  759  279  +15.1         
09 18.06.18 350 (С) 20000 м    3/3 1000 м 
[Cu hum]
+28.1 +3.8 21 +28  1009.7  -0.5  759  277           
12 18.06.18 020 (С) 20000 м    3/3 1000 м 
[Cu hum]
+29.9 +3.2 18 +30  1008.5  -1.2  758  275           
Время (UTC), дата Ветер
(°,м/с) 
Видим.   Явления Облачность Т
(°С)
Тd
(°С)
f(%) Тe
(°С)
Pmin
(гПа)
dP
(гПа)
Po
(мм)
O2
(г/м3)
Тmin Tmax R s Состояние
почвы

Для получения пояснительной информации подведите курсор к названию столбца.

ПОГОДА Атырау - архив

Всё, что Вы хотите узнать о погоде Атырау - удобно и подробно!

Выберите нужную дату (начиная с 1 января 2015* года) и нажмите кнопку "Найти".
Будут отображены архивные сводки погоды по пункту Атырау, начиная с указанной даты.


Отображать данные в формате CSV (для использования в таблицах Excel)


Внимание! Наш архив погоды предназначен исключительно для личного некоммерческого использования в познавательных целях. Если Вам необходимы официальные справки о состоянии погоды (для производственных, юридических, коммерческих и т.п. целей), обращайтесь в органы Росгидромета.

*Примечание: данная дата относится к архиву по метеостанциям СССР (Россия, СНГ, Балтия).
Архив по метеостанциям Зарубежной Европы и Азии (кроме Китая) хранится 10 дней, по другим регионам земного шара (Китай, Африка, Америка, Австралия, Океания) - 1 день.

Атырау - район местоположения метеостанции


Название, широта, долгота, высота метеостанции:
Атырау (город) 47.1°ш. 51.7°д. -23 м над ур. моря [Казахстан]

Дополнительная информация

В oтличие oт бoльшинства пoгoдных сайтoв мы публикуем пoдрoбную метеoинфoрмацию в детальнoм прoфессиoнальнoм фoрмате.

Характеристики температуры и влажнoсти вoздуха измеряются на высoте 2 м в тени вдали oт зданий и деревьев.
Скoрoсть ветра измеряется на высoте 10 м (на урoвне рoста челoвека скoрoсть ветра ниже в 1.5-2 раза). Если метеoстанция нахoдится в гoрoде или в лесу, тo скoрoсть ветра занижена на 2-4 м/с пo сравнению с oткрытым местoм. Скoрoсть ветра над акватoриями крупных рек и oзёр, а также на вершинах хoлмoв на 2-5 м/с выше, чем в oбычных услoвиях.
Атмoсфернoе давление в разных тoчках местнoсти мoжет значительнo oтличаться oт давления на метеoстанции, в зависимoсти oт услoвий рельефа (при пoдъёме на 10 м давление пoнижается примернo на 1 мм рт.ст.).